Find WHDW 20-03

NORAD ID: 68131 Int'l Des: 2026-047 Owner: ZXW Country: CN Constellation: xingwang operational
LEOCIRCULAR

Live-Position

3D-Globus wird geladen...

Über WHDW 20-03

Beschreibung wird geladen...

Nächste Überflüge

Passes for default location (London). Set your location on the main map for personalized predictions.

Höhenverlauf

Loading altitude history...

Zweizeiliger Elementsatz

1 68131U 26047C 26119.61090286 -.00000122 00000-0 11014-4 0 9996
2 68131 50.0092 230.7904 0001156 114.6343 245.4656 13.42190872 6608
Epoch: 29. Apr. 2026 • Age: 11 hours

Aktueller Status

Höhe 1106.3 km
Geschwindigkeit 7.30 km/s
Subsatellitenpunkt -17.92°S, 23.49°W
Startdatum 12. März 2026
Alter 0.1 years
Typ other

Technische Details

Klassifizierung Payload
Masse 700.00 kg
Trockenmasse 700.00 kg
Gesamtmasse 700.00 kg
Länge 3.00 m
Durchmesser 1.00 m
Spannweite 10.00 m
Form Box + 2 Pan
Hersteller CAST
Bus-Typ Xingwang C
Phasenstatus In Orbit
Besitzer/Staat ZXW/CN

Most Searched